When you browse on this site, cookies collect data to enhance your experience and personalize the content and advertising you see.
Visit our Privacy Policy to learn more. By continuing to use the site, you agree to this use of cookies and data.
  • Em Portugal
  • Lista de países
  • Para 7 dias
  • Temperatura da água
  • Mapa do tempo
  • Widgets de tempo
  • user-avatar
    Iniciar Sessão

    Previsão horária em Silistra

    Hoje, 1 Abril, Quarta-feira

    Tempo Temperatura Precipitação Vento Pressão Humidade
    00:00 +1°C° 0 mm 3 m/s 761 mmHg 49%
    01:00 +1°C° 0 mm 3 m/s 761 mmHg 50%
    02:00 +1°C° 0 mm 3 m/s 761 mmHg 50%
    03:00 +1°C° 0.1 mm 3 m/s 761 mmHg 51%
    04:00 +1°C° 0.1 mm 3 m/s 761 mmHg 53%
    05:00 +1°C° 0.1 mm 3 m/s 761 mmHg 54%
    06:00 0°C° 0 mm 4 m/s 761 mmHg 52%
    07:00 +1°C° 0 mm 4 m/s 761 mmHg 51%
    08:00 +1°C° 0 mm 5 m/s 761 mmHg 50%
    09:00 +2°C° 0 mm 5 m/s 761 mmHg 48%
    10:00 +3°C° 0 mm 5 m/s 761 mmHg 46%
    11:00 +5°C° 0 mm 5 m/s 761 mmHg 45%
    12:00 +5°C° 0 mm 5 m/s 761 mmHg 44%
    13:00 +6°C° 0 mm 5 m/s 761 mmHg 44%
    14:00 +7°C° 0 mm 5 m/s 761 mmHg 43%
    15:00 +7°C° 0 mm 5 m/s 760 mmHg 44%
    16:00 +6°C° 0 mm 5 m/s 760 mmHg 44%
    17:00 +6°C° 0 mm 5 m/s 759 mmHg 45%
    18:00 +3°C° 0 mm 5 m/s 759 mmHg 48%
    19:00 +3°C° 0 mm 4 m/s 760 mmHg 52%
    20:00 +2°C° 0 mm 3 m/s 760 mmHg 55%
    21:00 +1°C° 0 mm 3 m/s 760 mmHg 58%
    22:00 +2°C° 0 mm 2 m/s 760 mmHg 61%
    23:00 +1°C° 0 mm 2 m/s 760 mmHg 63%

    Amanhã, 2 Abril, Quinta-feira

    Tempo Temperatura Precipitação Vento Pressão Humidade
    00:00 +1°C° 0 mm 2 m/s 760 mmHg 64%
    01:00 +1°C° 0 mm 2 m/s 759 mmHg 64%
    02:00 +1°C° 0 mm 1 m/s 759 mmHg 65%
    03:00 -1°C° 0 mm 2 m/s 759 mmHg 63%
    04:00 -1°C° 0 mm 2 m/s 759 mmHg 62%
    05:00 -1°C° 0 mm 2 m/s 759 mmHg 60%
    06:00 +1°C° 0 mm 2 m/s 759 mmHg 56%
    07:00 +2°C° 0 mm 2 m/s 759 mmHg 51%
    08:00 +3°C° 0 mm 3 m/s 759 mmHg 47%
    09:00 +4°C° 0 mm 3 m/s 759 mmHg 45%
    10:00 +7°C° 0 mm 3 m/s 758 mmHg 43%
    11:00 +8°C° 0 mm 4 m/s 758 mmHg 41%
    12:00 +10°C° 0 mm 4 m/s 758 mmHg 40%
    13:00 +10°C° 0 mm 4 m/s 758 mmHg 38%
    14:00 +11°C° 0 mm 4 m/s 757 mmHg 37%
    15:00 +11°C° 0 mm 4 m/s 757 mmHg 38%
    16:00 +10°C° 0 mm 4 m/s 756 mmHg 40%
    17:00 +10°C° 0 mm 4 m/s 756 mmHg 41%
    18:00 +7°C° 0 mm 4 m/s 756 mmHg 47%
    19:00 +7°C° 0 mm 3 m/s 756 mmHg 52%
    20:00 +4°C° 0 mm 3 m/s 757 mmHg 57%
    21:00 +3°C° 0 mm 3 m/s 757 mmHg 60%
    22:00 +4°C° 0 mm 2 m/s 757 mmHg 62%
    23:00 +3°C° 0 mm 2 m/s 757 mmHg 65%

    Depois de amanhã, 3 Abril, Sexta-feira

    Tempo Temperatura Precipitação Vento Pressão Humidade
    00:00 +3°C° 0 mm 2 m/s 757 mmHg 65%
    01:00 +3°C° 0 mm 2 m/s 757 mmHg 64%
    02:00 +2°C° 0 mm 2 m/s 756 mmHg 64%
    03:00 +3°C° 0 mm 1 m/s 756 mmHg 64%
    04:00 +3°C° 0 mm 1 m/s 756 mmHg 64%
    05:00 +3°C° 0 mm 1 m/s 756 mmHg 64%
    06:00 +4°C° 0 mm 1 m/s 756 mmHg 61%
    07:00 +6°C° 0 mm 1 m/s 757 mmHg 58%
    08:00 +6°C° 0 mm 2 m/s 757 mmHg 54%
    09:00 +8°C° 0 mm 2 m/s 757 mmHg 48%
    10:00 +10°C° 0 mm 2 m/s 756 mmHg 43%
    11:00 +13°C° 0 mm 2 m/s 756 mmHg 37%
    12:00 +14°C° 0 mm 2 m/s 756 mmHg 36%
    13:00 +15°C° 0 mm 2 m/s 756 mmHg 35%
    14:00 +16°C° 0 mm 2 m/s 756 mmHg 34%
    15:00 +16°C° 0 mm 2 m/s 756 mmHg 36%
    16:00 +16°C° 0 mm 2 m/s 755 mmHg 38%
    17:00 +16°C° 0 mm 2 m/s 755 mmHg 40%
    18:00 +14°C° 0 mm 2 m/s 756 mmHg 45%
    19:00 +12°C° 0 mm 2 m/s 756 mmHg 51%
    20:00 +9°C° 0 mm 2 m/s 756 mmHg 57%
    21:00 +9°C° 0 mm 2 m/s 757 mmHg 60%
    22:00 +8°C° 0 mm 2 m/s 757 mmHg 63%
    23:00 +7°C° 0 mm 3 m/s 758 mmHg 65%

    4 Abril, Sábado

    Tempo Temperatura Precipitação Vento Pressão Humidade
    00:00 +7°C° 0 mm 2 m/s 758 mmHg 68%
    01:00 +7°C° 0 mm 2 m/s 758 mmHg 70%
    02:00 +6°C° 0 mm 2 m/s 758 mmHg 73%
    03:00 +6°C° 0 mm 2 m/s 758 mmHg 74%
    04:00 +6°C° 0 mm 2 m/s 758 mmHg 75%
    05:00 +6°C° 0 mm 2 m/s 759 mmHg 76%
    06:00 +8°C° 0 mm 1 m/s 759 mmHg 72%
    07:00 +9°C° 0 mm 1 m/s 759 mmHg 68%
    08:00 +11°C° 0 mm 1 m/s 760 mmHg 63%
    09:00 +12°C° 0 mm 1 m/s 760 mmHg 58%
    10:00 +14°C° 0 mm 1 m/s 760 mmHg 53%
    11:00 +16°C° 0 mm 1 m/s 760 mmHg 48%
    12:00 +16°C° 0 mm 1 m/s 760 mmHg 45%
    13:00 +18°C° 0 mm 1 m/s 760 mmHg 43%
    14:00 +17°C° 0 mm 0 m/s 761 mmHg 40%
    15:00 +19°C° 0 mm 1 m/s 761 mmHg 41%
    16:00 +18°C° 0 mm 1 m/s 761 mmHg 42%
    17:00 +18°C° 0 mm 1 m/s 761 mmHg 43%
    18:00 +16°C° 0 mm 2 m/s 761 mmHg 48%
    19:00 +13°C° 0 mm 3 m/s 762 mmHg 54%
    20:00 +12°C° 0 mm 4 m/s 762 mmHg 59%
    21:00 +11°C° 0 mm 3 m/s 763 mmHg 59%
    22:00 +10°C° 0 mm 3 m/s 763 mmHg 59%
    23:00 +8°C° 0 mm 2 m/s 764 mmHg 59%

    5 Abril, Domingo

    Tempo Temperatura Precipitação Vento Pressão Humidade
    00:00 +8°C° 0 mm 2 m/s 764 mmHg 58%
    01:00 +7°C° 0 mm 2 m/s 764 mmHg 56%
    02:00 +7°C° 0 mm 2 m/s 764 mmHg 54%
    03:00 +7°C° 0 mm 2 m/s 764 mmHg 56%
    04:00 +6°C° 0 mm 2 m/s 765 mmHg 57%
    05:00 +6°C° 0 mm 2 m/s 765 mmHg 59%
    06:00 +7°C° 0 mm 3 m/s 765 mmHg 57%
    07:00 +8°C° 0 mm 4 m/s 766 mmHg 54%
    08:00 +9°C° 0 mm 5 m/s 766 mmHg 52%
    09:00 +11°C° 0 mm 6 m/s 766 mmHg 48%
    10:00 +14°C° 0 mm 7 m/s 766 mmHg 44%
    11:00 +16°C° 0 mm 8 m/s 766 mmHg 40%
    12:00 +16°C° 0 mm 9 m/s 766 mmHg 40%
    13:00 +16°C° 0 mm 9 m/s 766 mmHg 40%
    14:00 +16°C° 0 mm 9 m/s 766 mmHg 41%
    15:00 +15°C° 0 mm 9 m/s 765 mmHg 41%
    16:00 +15°C° 0 mm 8 m/s 765 mmHg 42%
    17:00 +13°C° 0 mm 8 m/s 765 mmHg 42%
    18:00 +12°C° 0 mm 8 m/s 765 mmHg 45%
    19:00 +10°C° 0 mm 7 m/s 765 mmHg 47%
    20:00 +9°C° 0 mm 7 m/s 766 mmHg 50%
    21:00 +9°C° 0 mm 7 m/s 766 mmHg 50%
    22:00 +8°C° 0 mm 7 m/s 766 mmHg 51%
    23:00 +7°C° 0 mm 8 m/s 767 mmHg 51%

    6 Abril, Segunda-feira

    Tempo Temperatura Precipitação Vento Pressão Humidade
    00:00 +6°C° 0 mm 8 m/s 767 mmHg 51%
    01:00 +6°C° 0 mm 8 m/s 767 mmHg 50%
    02:00 +5°C° 0 mm 8 m/s 767 mmHg 50%
    03:00 +4°C° 0 mm 8 m/s 767 mmHg 51%
    04:00 +4°C° 0 mm 7 m/s 768 mmHg 53%
    05:00 +3°C° 0 mm 7 m/s 768 mmHg 55%
    06:00 +4°C° 0 mm 8 m/s 768 mmHg 53%
    07:00 +3°C° 0 mm 9 m/s 769 mmHg 51%
    08:00 +5°C° 0 mm 10 m/s 769 mmHg 50%
    09:00 +6°C° 0 mm 10 m/s 769 mmHg 46%
    10:00 +7°C° 0 mm 10 m/s 770 mmHg 43%
    11:00 +8°C° 0 mm 10 m/s 770 mmHg 40%
    12:00 +9°C° 0 mm 10 m/s 770 mmHg 39%
    13:00 +9°C° 0 mm 10 m/s 770 mmHg 37%
    14:00 +9°C° 0 mm 10 m/s 770 mmHg 35%
    15:00 +9°C° 0 mm 10 m/s 770 mmHg 36%
    16:00 +8°C° 0 mm 9 m/s 770 mmHg 37%
    17:00 +7°C° 0 mm 9 m/s 770 mmHg 38%
    18:00 +6°C° 0 mm 8 m/s 770 mmHg 42%
    19:00 +5°C° 0 mm 7 m/s 770 mmHg 45%
    20:00 +3°C° 0 mm 6 m/s 771 mmHg 49%
    21:00 +3°C° 0 mm 6 m/s 771 mmHg 50%
    22:00 +3°C° 0 mm 6 m/s 771 mmHg 51%
    23:00 +2°C° 0 mm 5 m/s 771 mmHg 53%
    Mostrar mais